Skip Page Navigation
NASA JPL Caltech
NASA Logo - Jet Propulsion Laboratory + View the NASA Portal
+ Near-Earth Object (NEO) Program
Search JPL
JPL Home Earth Solar System Stars & Galaxies Technology
JPL Solar System Dynamics
BODIES ORBITS EPHEMERIDES TOOLS PHYSICAL DATA DISCOVERY FAQ SITE MAP
JPL Small-Body Database Browser
Search: [ help ]  
7465 Munkanber (1989 UA3)
Classification: Main-belt Asteroid          SPK-ID: 2007465
Ephemeris | Orbit Diagram | Orbital Elements | Physical Parameters | Discovery Circumstances ]

[ hide orbit diagram ]
Orbit Diagram
Note: Make sure you have Java enabled on your browser to see the applet. This applet is provided as a 3D orbit visualization tool. The applet was implemented using 2-body methods, and hence should not be used for determining accurate long-term trajectories (over several years or decades) or planetary encounter circumstances. For accurate long-term ephemerides, please instead use our Horizons system.
Orbit Viewer

Additional Notes: the orbits shown in the applet are color coded. The planets are white lines, and the asteroid/comet is a blue line. The bright white line indicates the portion of the orbit that is above the ecliptic plane, and the darker portion is below the ecliptic plane. Likewise for the asteroid/comet orbit, the light blue indicates the portion above the ecliptic plane, and the dark blue the portion below the ecliptic plane.

Orbit Viewer applet originally written and kindly provided by Osamu Ajiki (AstroArts), and further modified by Ron Baalke (JPL).


Orbital Elements at Epoch 2456400.5 (2013-Apr-18.0) TDB
Reference: MPO240261 (heliocentric ecliptic J2000)
 Element Value Uncertainty (1-sigma)   Units 
e 0.1655713 n/a  
a 2.2481899 n/a AU
q 1.8759542 n/a AU
i 2.47906 n/a deg
node 190.76400 n/a deg
peri 193.76509 n/a deg
M 359.25489 n/a deg
tp 2456403.0483896
(2013-Apr-20.54838960)
n/a JED
period 1231.2547871
3.37
n/a
n/a
d
yr
n 0.29238465 n/a deg/d
Q 2.6204256 n/a AU
  Orbit Determination Parameters
   # obs. used (total)      635  
   first obs. used      1989-??-??  
   last obs. used      2012-09-04  
   # oppositions      15  
   planetary ephem.      DE403  
   condition code      0  
   fit RMS      0.55  
   data source      MPC:mpn  
   producer      MPCLINUX  

Additional Information
 T_jup = 3.610 

Ephemeris | Orbit Diagram | Orbital Elements | Physical Parameters | Discovery Circumstances ]

Physical Parameter Table
Parameter Symbol Value Units Sigma Reference Notes
absolute magnitude H 15.5 mag n/a PDS3 (MPC 29080)  

7465 Munkanber           Discovered 1989 Oct. 31 by B. G. W. Manning at Stakenbridge.
Named in honor of John Munger, Veikko Kanto and Richard Berry, the authors of The CCD Cookbook. By providing detailed instructions and software, they have made it possible for the amateur astronomer to construct and operate an efficient, low-cost CCD camera. The final imaging and astrometry of this minor planet was carried out with such a camera made by the discoverer.
NOTE: some special characters may not display properly (any characters within {} are an attempt to place the proper accent above a character)
Reference: 19980808/MPCPages.arcLast Updated: 2009-11-17

Alternate Designations
 1989 UA3 = 1992 OM10 = 1992 PN 
Ephemeris | Orbit Diagram | Orbital Elements | Physical Parameters | Discovery Circumstances ]
ABOUT SSD CREDITS/AWARDS PRIVACY/COPYRIGHT GLOSSARY LINKS
FirstGov 2013-May-23 16:55 UT
(server date/time)  
NASA Home Page
Site Manager:   Donald K. Yeomans
Webmaster  Alan B. Chamberlin